sat.trackr.live / text

‹ back to catalog

STARLINK-35324

NORAD 65838 · 2025-221R

PAYLOAD ACTIVE UNKNOWN

§ Identity

Operator
Country
US
Launch date
2025-09-29
Launch site
AFWTR
Launch vehicle
Mass (kg)
RCS (m²)

Purposes: comms

External: N2YO · Heavens-Above · Gunter

§ Orbital elements

Epoch: 2026-05-25T03:30:55.791648Z

Period
94.11 min
Inclination
53.1570°
Eccentricity
0.0001074
Mean motion
15.30202894 rev/d
Perigee alt
474.5 km
Apogee alt
475.9 km
Semi-major
6,853.3 km
B*
4.7081e-4
RAAN
93.6070°
Arg perigee
75.9098°
Mean anomaly
284.2022°
Rev number
3,643

§ Raw data

STARLINK-353241 65838U 25221R   26145.14647907  .00013612  00000+0  47081-3 0  99932 65838  53.1570  93.6070 0001074  75.9098 284.2022 15.30202894 36438

JSON: /api/v1/satellites/65838 · /tle

For live sub-satellite position, see the globe view (requires WebGL).

§ Visibility from observer

Set your observer location to see the next 7 days of passes ≥ 10°. The values pass through the URL so the page stays shareable.

No JS? Fill the form by hand. The geolocation button needs JavaScript.